TimeAEST,TemperatureF,Dew PointF,Humidity,Sea Level PressureIn,VisibilityMPH,Wind Direction,Wind SpeedMPH,Gust SpeedMPH,PrecipitationIn,Events,Conditions,WindDirDegrees,DateUTC
12:00 AM,46,40,74,30.21,,SSE,8.1,,,,,150,2013-06-25 14:00:00
12:00 AM,46.4,41.0,81,30.15,6.2,SSE,8.1,-,N/A,,Unknown,150,2013-06-25 14:00:00
12:30 AM,44.6,39.2,81,30.15,6.2,SSW,10.4,-,N/A,,Unknown,210,2013-06-25 14:30:00
1:00 AM,46,40,74,30.20,,South,9.2,,,,,190,2013-06-25 15:00:00
1:00 AM,46.4,41.0,81,30.15,6.2,South,9.2,-,N/A,,Mostly Cloudy,190,2013-06-25 15:00:00
1:30 AM,46.4,41.0,81,30.15,6.2,SSE,13.8,-,N/A,,Mostly Cloudy,160,2013-06-25 15:30:00
2:00 AM,46.4,41.0,81,30.18,6.2,South,11.5,-,N/A,,Scattered Clouds,170,2013-06-25 16:00:00
2:30 AM,48.2,42.8,82,30.18,6.2,South,10.4,-,N/A,,Mostly Cloudy,180,2013-06-25 16:30:00
3:00 AM,45,41,82,30.22,,South,10.4,,,,,180,2013-06-25 17:00:00
3:00 AM,44.6,41.0,87,30.18,6.2,South,10.4,-,N/A,,Unknown,180,2013-06-25 17:00:00
3:30 AM,44.6,41.0,87,30.18,6.2,South,10.4,-,N/A,,Unknown,180,2013-06-25 17:30:00
4:00 AM,45,41,80,30.21,,South,8.1,,,,,180,2013-06-25 18:00:00
4:00 AM,44.6,41.0,87,30.18,6.2,South,8.1,-,N/A,,Mostly Cloudy,180,2013-06-25 18:00:00
4:30 AM,42.8,41.0,93,30.18,6.2,South,8.1,-,N/A,,Mostly Cloudy,170,2013-06-25 18:30:00
5:00 AM,46.4,41.0,81,30.18,6.2,South,9.2,-,N/A,,Scattered Clouds,180,2013-06-25 19:00:00
5:30 AM,44.6,41.0,87,30.18,6.2,South,9.2,-,N/A,,Scattered Clouds,170,2013-06-25 19:30:00
6:00 AM,41,38,86,30.23,,South,9.2,,,,,170,2013-06-25 20:00:00
6:00 AM,41.0,39.2,93,30.18,6.2,South,9.2,-,N/A,,Scattered Clouds,170,2013-06-25 20:00:00
6:30 AM,41.0,39.2,93,30.21,6.2,South,8.1,-,N/A,,Mostly Cloudy,180,2013-06-25 20:30:00
7:00 AM,44,41,84,30.25,,SSE,9.2,,,,,160,2013-06-25 21:00:00
7:00 AM,42.8,41.0,93,30.21,6.2,SSE,9.2,-,N/A,,Scattered Clouds,160,2013-06-25 21:00:00
7:30 AM,44.6,41.0,87,30.21,6.2,South,8.1,-,N/A,,Scattered Clouds,180,2013-06-25 21:30:00
8:00 AM,44.6,41.0,87,30.21,6.2,South,9.2,-,N/A,,Partly Cloudy,180,2013-06-25 22:00:00
8:30 AM,48.2,41.0,76,30.21,6.2,South,8.1,-,N/A,,Partly Cloudy,180,2013-06-25 22:30:00
9:00 AM,50,41,62,30.26,,South,11.5,,,,,170,2013-06-25 23:00:00
9:00 AM,50.0,41.0,71,30.21,6.2,South,11.5,-,N/A,,Partly Cloudy,170,2013-06-25 23:00:00
9:30 AM,51.8,41.0,67,30.21,6.2,South,9.2,-,N/A,,Partly Cloudy,170,2013-06-25 23:30:00
10:00 AM,54,42,54,30.26,,South,12.7,,,,,170,2013-06-26 00:00:00
10:00 AM,53.6,42.8,67,30.21,6.2,South,12.7,-,N/A,,Partly Cloudy,170,2013-06-26 00:00:00
10:30 AM,55.4,41.0,58,30.21,6.2,SSE,10.4,-,N/A,,Scattered Clouds,160,2013-06-26 00:30:00
11:00 AM,55.4,41.0,58,30.21,6.2,South,11.5,-,N/A,,Scattered Clouds,170,2013-06-26 01:00:00
11:30 AM,57.2,42.8,59,30.21,6.2,SSE,8.1,-,N/A,,Scattered Clouds,160,2013-06-26 01:30:00
12:00 PM,57,43,48,30.24,,SSE,10.4,,,,,160,2013-06-26 02:00:00
12:00 PM,57.2,42.8,59,30.18,6.2,SSE,10.4,-,N/A,,Scattered Clouds,160,2013-06-26 02:00:00
12:30 PM,59.0,42.8,55,30.18,6.2,SSE,8.1,-,N/A,,Partly Cloudy,160,2013-06-26 02:30:00
1:00 PM,59,44,46,30.21,,ESE,10.4,,,,,120,2013-06-26 03:00:00
1:00 PM,59.0,44.6,59,30.18,6.2,ESE,10.4,-,N/A,,Partly Cloudy,120,2013-06-26 03:00:00
1:30 PM,60.8,44.6,55,30.15,6.2,ESE,10.4,-,N/A,,Partly Cloudy,120,2013-06-26 03:30:00
2:00 PM,59.0,42.8,55,30.15,6.2,ESE,12.7,-,N/A,,Partly Cloudy,120,2013-06-26 04:00:00
2:30 PM,59.0,44.6,59,30.15,6.2,ESE,11.5,-,N/A,,Partly Cloudy,110,2013-06-26 04:30:00
3:00 PM,59,45,49,30.21,,ESE,12.7,,,,,110,2013-06-26 05:00:00
3:00 PM,59.0,44.6,59,30.15,6.2,ESE,12.7,-,N/A,,Partly Cloudy,110,2013-06-26 05:00:00
3:30 PM,59.0,44.6,59,30.18,6.2,SE,11.5,-,N/A,,Scattered Clouds,140,2013-06-26 05:30:00
4:00 PM,56,45,56,30.21,,ESE,12.7,,,,,110,2013-06-26 06:00:00
4:00 PM,55.4,44.6,67,30.18,6.2,ESE,12.7,-,N/A,,Mostly Cloudy,110,2013-06-26 06:00:00
4:30 PM,53.6,46.4,77,30.18,6.2,East,11.5,-,N/A,,Scattered Clouds,100,2013-06-26 06:30:00
5:00 PM,51.8,44.6,76,30.18,6.2,ESE,10.4,-,N/A,,Partly Cloudy,120,2013-06-26 07:00:00
5:30 PM,50.0,44.6,82,30.18,6.2,ESE,9.2,-,N/A,,Partly Cloudy,110,2013-06-26 07:30:00
6:00 PM,49,44,76,30.24,,SE,6.9,,,,,130,2013-06-26 08:00:00
6:00 PM,48.2,44.6,87,30.18,6.2,SE,6.9,-,N/A,,Partly Cloudy,130,2013-06-26 08:00:00
6:30 PM,48.2,42.8,82,30.21,6.2,SSE,6.9,-,N/A,,Partly Cloudy,150,2013-06-26 08:30:00
6:53 PM,48.2,42.8,82,30.21,6.2,SE,5.8,-,N/A,,Mostly Cloudy,140,2013-06-26 08:53:00
7:00 PM,50,45,76,30.24,,SE,5.8,,,,,130,2013-06-26 09:00:00
7:00 PM,50.0,44.6,82,30.21,6.2,SE,5.8,-,N/A,,Mostly Cloudy,130,2013-06-26 09:00:00
7:24 PM,48.2,42.8,82,30.21,6.2,South,5.8,-,N/A,,Partly Cloudy,170,2013-06-26 09:24:00
7:30 PM,46.4,42.8,87,30.21,6.2,South,5.8,-,N/A,,Partly Cloudy,170,2013-06-26 09:30:00
8:00 PM,44.6,41.0,87,30.21,6.2,ENE,1.2,-,N/A,,Partly Cloudy,70,2013-06-26 10:00:00
8:30 PM,41.0,37.4,87,30.21,6.2,ENE,2.3,-,N/A,,Partly Cloudy,70,2013-06-26 10:30:00
9:00 PM,43,42,95,30.27,,NE,3.5,,,,,50,2013-06-26 11:00:00
9:00 PM,42.8,42.8,100,30.21,6.2,NE,3.5,-,N/A,,Unknown,50,2013-06-26 11:00:00
9:30 PM,41.0,41.0,100,30.21,6.2,ENE,4.6,-,N/A,,Unknown,60,2013-06-26 11:30:00
10:00 PM,40,39,96,30.27,,NE,3.5,,,,,50,2013-06-26 12:00:00
10:00 PM,39.2,39.2,100,30.24,6.2,NE,3.5,-,N/A,,Scattered Clouds,50,2013-06-26 12:00:00
10:30 PM,41.0,39.2,93,30.24,6.2,Calm,Calm,-,N/A,,Unknown,0,2013-06-26 12:30:00
11:00 PM,39.2,39.2,100,30.24,6.2,NNE,1.2,-,N/A,,Scattered Clouds,30,2013-06-26 13:00:00
11:30 PM,41.0,41.0,100,30.24,6.2,Calm,Calm,-,N/A,,Overcast,0,2013-06-26 13:30:00